Tracking 20370 objects as of 19-Feb-2020
HD Live streaming from Space Station
objects crossing your sky now
Track the group of recently launched Starlink satellites

COSMOS 249 DEB

Track COSMOS 249 DEB now!
10-day predictions


NORAD ID: 6764
Int'l Code: 1968-091CK
Perigee: 933.3 km
Apogee: 2,115.7 km
Inclination: 62.3 °
Period: 116.4 minutes
Semi major axis: 7895 km
RCS: 0.0142 m2 (small)
Launch date: October 20, 1968
Source: Commonwealth of Independent States (former USSR) (CIS)
Launch site: TYURATAM MISSILE AND SPACE COMPLEX (TTMTR)

Note: This is SATELLITE DEBRIS
aabbcc
Your satellite tracking list
Your tracking list is empty




NASA's NSSDC Master Catalog

Two Line Element Set (TLE):
1  6764U 68091CK  20049.83221250  .00000587  00000-0  19343-2 0  9997
2  6764  62.3456 143.3201 0748796 292.6963 160.3817 12.37474537439604
Source of the keplerian elements: AFSPC